Time,TemperatureF,DewpointF,PressureIn,WindDirection,WindDirectionDegrees,WindSpeedMPH,WindSpeedGustMPH,Humidity,HourlyPrecipIn,Conditions,Clouds,dailyrainin,SolarRadiationWatts/m^2,SoftwareType,DateUTC
2013-01-20 00:02:00,23.0,17.0,-100.00,East,98,3.0,4.0,78,-99.99,,,0.00,0.000000,,2013-01-20 07:02:00,
2013-01-20 00:22:00,23.0,17.0,-100.00,East,98,3.0,4.0,78,-99.99,,,0.00,0.000000,,2013-01-20 07:22:00,
2013-01-20 00:32:00,23.0,17.0,-100.00,East,98,3.0,4.0,78,-99.99,,,0.00,0.000000,,2013-01-20 07:32:00,
2013-01-20 00:52:00,21.0,14.0,-100.00,East,99,1.0,3.0,75,-99.99,,,0.00,0.000000,,2013-01-20 07:52:00,
2013-01-20 01:02:00,21.0,14.0,-100.00,East,99,1.0,3.0,75,-99.99,,,0.00,0.000000,,2013-01-20 08:02:00,
2013-01-20 01:52:00,20.0,13.0,-100.00,East,81,5.0,7.0,74,-99.99,,,0.00,0.000000,,2013-01-20 08:52:00,
2013-01-20 02:02:00,20.0,13.0,-100.00,East,81,5.0,7.0,74,-99.99,,,0.00,0.000000,,2013-01-20 09:02:00,
2013-01-20 02:53:00,19.0,12.0,-100.00,East,86,5.0,6.0,73,-99.99,,,0.00,0.000000,,2013-01-20 09:53:00,
2013-01-20 03:02:00,19.0,12.0,-100.00,East,86,5.0,6.0,73,-99.99,,,0.00,0.000000,,2013-01-20 10:02:00,
2013-01-20 03:12:00,19.0,12.0,-100.00,East,86,5.0,6.0,73,-99.99,,,0.00,0.000000,,2013-01-20 10:12:00,
2013-01-20 03:22:00,19.0,12.0,-100.00,East,86,5.0,6.0,73,-99.99,,,0.00,0.000000,,2013-01-20 10:22:00,
2013-01-20 03:32:00,19.0,12.0,-100.00,East,86,5.0,6.0,73,-99.99,,,0.00,0.000000,,2013-01-20 10:32:00,
2013-01-20 03:52:00,18.0,11.0,-100.00,SE,130,0.0,7.0,73,-99.99,,,0.00,0.000000,,2013-01-20 10:52:00,
2013-01-20 04:02:00,18.0,11.0,-100.00,SE,130,0.0,7.0,73,-99.99,,,0.00,0.000000,,2013-01-20 11:02:00,
2013-01-20 04:12:00,18.0,11.0,-100.00,SE,130,0.0,7.0,73,-99.99,,,0.00,0.000000,,2013-01-20 11:12:00,
2013-01-20 04:22:00,18.0,11.0,-100.00,SE,130,0.0,7.0,73,-99.99,,,0.00,0.000000,,2013-01-20 11:22:00,
2013-01-20 04:53:00,17.0,11.0,-100.00,North,349,0.0,2.0,77,-99.99,,,0.00,0.000000,,2013-01-20 11:53:00,
2013-01-20 05:03:00,17.0,11.0,-100.00,North,349,0.0,2.0,77,-99.99,,,0.00,0.000000,,2013-01-20 12:03:00,
2013-01-20 05:53:00,16.0,10.0,-100.00,East,95,4.0,4.0,77,-99.99,,,-99.99,0.000000,,2013-01-20 12:53:00,
2013-01-20 06:02:00,16.0,10.0,-100.00,East,95,4.0,4.0,77,-99.99,,,-99.99,0.000000,,2013-01-20 13:02:00,
2013-01-20 06:32:00,16.0,10.0,-100.00,East,95,4.0,4.0,77,-99.99,,,-99.99,0.000000,,2013-01-20 13:32:00,
2013-01-20 06:53:00,15.0,9.0,-100.00,ENE,76,1.0,5.0,78,-99.99,,,-99.99,0.000000,,2013-01-20 13:53:00,
2013-01-20 07:02:00,15.0,9.0,-100.00,ENE,76,1.0,5.0,78,-99.99,,,-99.99,0.000000,,2013-01-20 14:02:00,
2013-01-20 07:32:00,15.0,9.0,-100.00,ENE,76,1.0,5.0,78,-99.99,,,-99.99,0.000000,,2013-01-20 14:32:00,
2013-01-20 07:53:00,15.0,9.0,-100.00,East,99,1.0,4.0,77,-99.99,,,0.00,0.000000,,2013-01-20 14:53:00,
2013-01-20 08:03:00,15.0,9.0,-100.00,East,99,1.0,4.0,77,-99.99,,,0.00,0.000000,,2013-01-20 15:03:00,
2013-01-20 08:32:00,15.0,9.0,-100.00,East,99,1.0,4.0,77,-99.99,,,0.00,0.000000,,2013-01-20 15:32:00,
2013-01-20 09:02:00,14.0,8.0,-100.00,East,89,3.0,4.0,77,-99.99,,,0.00,4.000000,,2013-01-20 16:02:00,
2013-01-20 10:02:00,20.0,9.0,-100.00,ESE,108,3.0,6.0,62,-99.99,,,0.00,93.000000,,2013-01-20 17:02:00,
2013-01-20 11:02:00,24.0,12.0,-100.00,ESE,106,2.0,6.0,59,-99.99,,,0.00,247.000000,,2013-01-20 18:02:00,
2013-01-20 11:53:00,30.0,14.0,-100.00,SSE,150,1.0,4.0,50,-99.99,,,0.00,364.000000,,2013-01-20 18:53:00,
2013-01-20 12:02:00,30.0,14.0,-100.00,SSE,150,1.0,4.0,50,-99.99,,,0.00,364.000000,,2013-01-20 19:02:00,
2013-01-20 12:53:00,35.0,16.0,-100.00,South,184,1.0,3.0,45,-99.99,,,0.00,438.000000,,2013-01-20 19:53:00,
2013-01-20 13:02:00,35.0,16.0,-100.00,South,184,1.0,3.0,45,-99.99,,,0.00,438.000000,,2013-01-20 20:02:00,
2013-01-20 13:53:00,37.0,17.0,-100.00,South,179,2.0,4.0,43,-99.99,,,0.00,460.000000,,2013-01-20 20:53:00,
2013-01-20 14:03:00,37.0,17.0,-100.00,South,179,2.0,4.0,43,-99.99,,,0.00,460.000000,,2013-01-20 21:03:00,
2013-01-20 14:33:00,37.0,17.0,-100.00,South,179,2.0,4.0,43,-99.99,,,0.00,460.000000,,2013-01-20 21:33:00,
2013-01-20 15:03:00,40.0,18.0,-100.00,SW,220,1.0,4.0,40,0.00,,,0.00,425.000000,,2013-01-20 22:03:00,
2013-01-20 15:53:00,40.0,18.0,-100.00,West,277,1.0,3.0,41,0.00,,,0.00,340.000000,,2013-01-20 22:53:00,
2013-01-20 16:03:00,40.0,18.0,-100.00,West,277,1.0,3.0,41,0.00,,,0.00,340.000000,,2013-01-20 23:03:00,
2013-01-20 16:12:00,40.0,18.0,-100.00,West,277,1.0,3.0,41,0.00,,,0.00,340.000000,,2013-01-20 23:12:00,
2013-01-20 16:22:00,40.0,18.0,-100.00,West,277,1.0,3.0,41,0.00,,,0.00,340.000000,,2013-01-20 23:22:00,
2013-01-20 17:03:00,41.0,21.0,-100.00,WSW,237,0.0,3.0,44,-99.99,,,0.00,215.000000,,2013-01-21 00:03:00,
2013-01-20 17:53:00,31.0,15.0,-100.00,North,10,0.0,2.0,51,-99.99,,,0.00,29.000000,,2013-01-21 00:53:00,
2013-01-20 18:03:00,31.0,15.0,-100.00,North,10,0.0,2.0,51,-99.99,,,0.00,29.000000,,2013-01-21 01:03:00,
2013-01-20 18:12:00,31.0,15.0,-100.00,North,10,0.0,2.0,51,-99.99,,,0.00,29.000000,,2013-01-21 01:12:00,
2013-01-20 18:22:00,31.0,15.0,-100.00,North,10,0.0,2.0,51,-99.99,,,0.00,29.000000,,2013-01-21 01:22:00,
2013-01-20 18:32:00,31.0,15.0,-100.00,North,10,0.0,2.0,51,-99.99,,,0.00,29.000000,,2013-01-21 01:32:00,
2013-01-20 19:03:00,28.0,15.0,-100.00,ESE,111,0.0,1.0,57,0.00,,,0.00,1.000000,,2013-01-21 02:03:00,
2013-01-20 19:12:00,28.0,15.0,-100.00,ESE,111,0.0,1.0,57,0.00,,,0.00,1.000000,,2013-01-21 02:12:00,
2013-01-20 19:22:00,28.0,15.0,-100.00,ESE,111,0.0,1.0,57,0.00,,,0.00,1.000000,,2013-01-21 02:22:00,
2013-01-20 19:32:00,28.0,15.0,-100.00,ESE,111,0.0,1.0,57,0.00,,,0.00,1.000000,,2013-01-21 02:32:00,
2013-01-20 19:53:00,27.0,16.0,-100.00,East,95,3.0,4.0,64,0.00,,,0.00,0.000000,,2013-01-21 02:53:00,
2013-01-20 20:02:00,27.0,16.0,-100.00,East,95,3.0,4.0,64,0.00,,,0.00,0.000000,,2013-01-21 03:02:00,
2013-01-20 20:12:00,27.0,16.0,-100.00,East,95,3.0,4.0,64,0.00,,,0.00,0.000000,,2013-01-21 03:12:00,
2013-01-20 20:23:00,27.0,16.0,-100.00,East,95,3.0,4.0,64,0.00,,,0.00,0.000000,,2013-01-21 03:23:00,
2013-01-20 20:32:00,27.0,16.0,-100.00,East,95,3.0,4.0,64,0.00,,,0.00,0.000000,,2013-01-21 03:32:00,
2013-01-20 20:53:00,25.0,17.0,-100.00,SSE,151,0.0,5.0,71,0.00,,,0.00,0.000000,,2013-01-21 03:53:00,
2013-01-20 21:02:00,25.0,17.0,-100.00,SSE,151,0.0,5.0,71,0.00,,,0.00,0.000000,,2013-01-21 04:02:00,
2013-01-20 21:12:00,25.0,17.0,-100.00,SSE,151,0.0,5.0,71,0.00,,,0.00,0.000000,,2013-01-21 04:12:00,
2013-01-20 21:22:00,25.0,17.0,-100.00,SSE,151,0.0,5.0,71,0.00,,,0.00,0.000000,,2013-01-21 04:22:00,
2013-01-20 21:32:00,25.0,17.0,-100.00,SSE,151,0.0,5.0,71,0.00,,,0.00,0.000000,,2013-01-21 04:32:00,
2013-01-20 21:53:00,25.0,16.0,-100.00,ESE,103,2.0,3.0,67,0.00,,,0.00,0.000000,,2013-01-21 04:53:00,
2013-01-20 22:03:00,25.0,16.0,-100.00,ESE,103,2.0,3.0,67,0.00,,,0.00,0.000000,,2013-01-21 05:03:00,
2013-01-20 22:12:00,25.0,16.0,-100.00,ESE,103,2.0,3.0,67,0.00,,,0.00,0.000000,,2013-01-21 05:12:00,
2013-01-20 22:22:00,25.0,16.0,-100.00,ESE,103,2.0,3.0,67,0.00,,,0.00,0.000000,,2013-01-21 05:22:00,
2013-01-20 22:33:00,25.0,16.0,-100.00,ESE,103,2.0,3.0,67,0.00,,,0.00,0.000000,,2013-01-21 05:33:00,
2013-01-20 22:53:00,24.0,15.0,-100.00,East,98,2.0,3.0,69,-99.99,,,0.00,0.000000,,2013-01-21 05:53:00,
2013-01-20 23:02:00,24.0,15.0,-100.00,East,98,2.0,3.0,69,-99.99,,,0.00,0.000000,,2013-01-21 06:02:00,
2013-01-20 23:12:00,24.0,15.0,-100.00,East,98,2.0,3.0,69,-99.99,,,0.00,0.000000,,2013-01-21 06:12:00,
2013-01-20 23:23:00,24.0,15.0,-100.00,East,98,2.0,3.0,69,-99.99,,,0.00,0.000000,,2013-01-21 06:23:00,
2013-01-20 23:32:00,24.0,15.0,-100.00,East,98,2.0,3.0,69,-99.99,,,0.00,0.000000,,2013-01-21 06:32:00,
2013-01-20 23:53:00,23.0,14.0,-100.00,East,90,2.0,5.0,69,-99.99,,,-99.99,0.000000,,2013-01-21 06:53:00,